Walhalla, ND

7:13 AM CDT on April 24, 2018 (GMT -0500)
Walhalla

Weather History for K96D - March, 2014

Change the Weather History Date:

Friday, March 21, 2014

  Actual Average (KGAF) Record (KGAF)
Temperature  
Mean Temperature 20 °F -  
Max Temperature 32 °F 38 °F 62 °F (2012)
Min Temperature 8 °F 20 °F -12 °F (1965)
Degree Days  
Heating Degree Days 45    
Moisture  
Dew Point 11 °F    
Average Humidity 83    
Maximum Humidity 100    
Minimum Humidity 62    
Precipitation  
Precipitation 0.07 in - - ()
Sea Level Pressure  
Sea Level Pressure 30.15 in    
Wind  
Wind Speed 19 mph (North)    
Max Wind Speed 34 mph    
Max Gust Speed 44 mph    
Visibility 8 miles    
Events Snow    
Averages and records for this station are not official NWS values.
T = Trace of Precipitation, MM = Missing Value Source: NWS Daily Summary

Daily Weather History Graph

Daily Weather History Graph

Search for Another Location

Airport or City:

Astronomy

Mar. 21, 2014 Rise Set
Actual Time 7:32 AM CDT 7:46 PM CDT
Civil Twilight 7:00 AM CDT 8:17 PM CDT
Nautical Twilight 6:23 AM CDT 8:55 PM CDT
Astronomical Twilight 5:44 AM CDT 9:33 PM CDT
Moon 12:28 AM CDT (3/21) 10:01 AM CDT (3/21)
Length of Visible Light 13h 17m
Length of Day
12h 13m
Waning Gibbous, 75% of the Moon is Illuminated
Mar 21
Waning Gibbous
Mar 23
Last Quarter
Mar 30
New
Apr 7
First Quarter
Apr 15
Full

Hourly Weather History & Observations

Time (CDT) Temp. Windchill Dew Point Humidity Pressure Visibility Wind Dir Wind Speed Gust Speed Precip Events Conditions
12:15 AM 32.0 °F 23.0 °F 32.0 °F 100% 29.82 in 6.0 mi NE 11.5 mph - N/A   Overcast
12:35 AM 32.0 °F 23.0 °F 32.0 °F 100% 29.83 in 4.0 mi NE 11.5 mph 17.3 mph N/A Snow Light Snow
12:55 AM 32.0 °F 23.0 °F 32.0 °F 100% 29.83 in 4.0 mi NE 11.5 mph - 0.01 in Snow Light Snow
1:15 AM 32.0 °F 22.5 °F 32.0 °F 100% 29.83 in 5.0 mi NE 12.7 mph - N/A Snow Light Snow
1:35 AM 32.0 °F 23.6 °F 32.0 °F 100% 29.83 in 5.0 mi NE 10.4 mph - N/A Snow Light Snow
1:55 AM 32.0 °F 23.0 °F 32.0 °F 100% 29.83 in 6.0 mi NE 11.5 mph - N/A   Overcast
2:15 AM 32.0 °F 22.5 °F 32.0 °F 100% 29.84 in 2.5 mi NNE 12.7 mph - 0.05 in Snow Light Snow
2:35 AM 32.0 °F 21.6 °F 32.0 °F 100% 29.84 in 4.0 mi NNE 15.0 mph - 0.06 in Snow Light Snow
2:55 AM 32.0 °F 22.1 °F 32.0 °F 100% 29.85 in 5.0 mi NNE 13.8 mph - 0.06 in Snow Light Snow
3:15 AM 32.0 °F 22.1 °F 32.0 °F 100% 29.85 in 6.0 mi NNE 13.8 mph - N/A   Overcast
3:35 AM 32.0 °F 22.5 °F 32.0 °F 100% 29.86 in 7.0 mi NNE 12.7 mph - N/A   Overcast
3:55 AM 30.2 °F 18.5 °F 30.2 °F 100% 29.86 in 3.0 mi North 17.3 mph - N/A   Overcast
4:15 AM 28.4 °F 16.6 °F 28.4 °F 100% 29.87 in 0.8 mi North 16.1 mph 26.5 mph N/A   Overcast
4:35 AM 28.4 °F 14.1 °F 28.4 °F 100% 29.88 in 5.0 mi North 24.2 mph 29.9 mph N/A   Overcast
4:55 AM 24.8 °F 8.7 °F 24.8 °F 100% 29.90 in 5.0 mi North 26.5 mph 36.8 mph N/A   Overcast
5:15 AM 24.8 °F 9.0 °F 24.8 °F 100% 29.91 in 7.0 mi North 25.3 mph 29.9 mph N/A   Overcast
5:35 AM 24.8 °F 9.6 °F 24.8 °F 100% 29.92 in 7.0 mi North 23.0 mph 38.0 mph N/A   Overcast
5:55 AM 23.0 °F 6.3 °F 23.0 °F 100% 29.94 in 5.0 mi North 26.5 mph 40.3 mph N/A   Overcast
6:15 AM 21.2 °F 3.3 °F 21.2 °F 100% 29.95 in 7.0 mi North 28.8 mph 41.4 mph N/A   Overcast
6:35 AM 19.4 °F 1.4 °F 19.4 °F 100% 29.97 in 10.0 mi NNW 26.5 mph 42.6 mph N/A   Overcast
6:55 AM 17.6 °F -1.0 °F 17.6 °F 100% 29.99 in 10.0 mi North 26.5 mph 41.4 mph N/A   Overcast
7:15 AM 15.8 °F -4.7 °F 14.0 °F 93% 30.01 in 10.0 mi North 31.1 mph 42.6 mph N/A   Mostly Cloudy
7:35 AM 15.8 °F -3.4 °F 14.0 °F 93% 30.02 in 10.0 mi North 26.5 mph 42.6 mph N/A Snow Light Snow
7:55 AM 14.0 °F -6.2 °F 14.0 °F 100% 30.04 in 4.0 mi North 27.6 mph 43.7 mph N/A Snow Light Snow
8:15 AM 14.0 °F -6.5 °F 12.2 °F 93% 30.06 in 7.0 mi North 28.8 mph 39.1 mph N/A   Mostly Cloudy
8:35 AM 12.2 °F -8.6 °F 10.4 °F 92% 30.07 in 10.0 mi North 27.6 mph 42.6 mph N/A   Mostly Cloudy
8:55 AM 12.2 °F -8.6 °F 8.6 °F 85% 30.08 in 10.0 mi North 27.6 mph 40.3 mph N/A   Overcast
9:15 AM 12.2 °F -8.2 °F 6.8 °F 79% 30.10 in 10.0 mi NNW 26.5 mph 41.4 mph N/A   Overcast
9:35 AM 12.2 °F -9.3 °F 6.8 °F 79% 30.12 in 10.0 mi North 29.9 mph 40.3 mph N/A   Overcast
9:55 AM 10.4 °F -13.0 °F 6.8 °F 85% 30.13 in 10.0 mi North 34.5 mph 42.6 mph N/A   Overcast
10:15 AM 10.4 °F -12.7 °F 6.8 °F 85% 30.14 in 10.0 mi North 33.4 mph 40.3 mph N/A   Overcast
10:35 AM 10.4 °F -10.7 °F 5.0 °F 79% 30.15 in 10.0 mi NNW 26.5 mph 39.1 mph N/A   Overcast
10:55 AM 10.4 °F -9.9 °F 5.0 °F 79% 30.17 in 10.0 mi NNW 24.2 mph 35.7 mph N/A   Overcast
11:15 AM 10.4 °F -11.7 °F 6.8 °F 85% 30.17 in 10.0 mi NNW 29.9 mph 34.5 mph N/A   Mostly Cloudy
11:35 AM 10.4 °F -12.3 °F 6.8 °F 85% 30.18 in 10.0 mi North 32.2 mph 38.0 mph N/A   Mostly Cloudy
11:55 AM 12.2 °F -9.3 °F 6.8 °F 79% 30.19 in 10.0 mi North 29.9 mph 39.1 mph N/A   Mostly Cloudy
12:15 PM 10.4 °F -10.7 °F 6.8 °F 85% 30.20 in 9.0 mi NNW 26.5 mph 35.7 mph N/A   Scattered Clouds
12:35 PM 10.4 °F -9.1 °F 6.8 °F 85% 30.21 in 10.0 mi NNW 21.9 mph 33.4 mph N/A   Scattered Clouds
12:55 PM 10.4 °F -9.5 °F 6.8 °F 85% 30.22 in 7.0 mi NNW 23.0 mph 31.1 mph N/A Snow Light Snow
1:15 PM 10.4 °F -9.9 °F 8.6 °F 92% 30.23 in 7.0 mi North 24.2 mph 32.2 mph N/A Snow Light Snow
1:35 PM 10.4 °F -10.7 °F 8.6 °F 92% 30.23 in 9.0 mi NNW 26.5 mph 31.1 mph N/A   Scattered Clouds
1:55 PM 12.2 °F -8.2 °F 6.8 °F 79% 30.24 in 10.0 mi NNW 26.5 mph - N/A   Scattered Clouds
2:15 PM 10.4 °F -9.5 °F 6.8 °F 85% 30.25 in 10.0 mi NNW 23.0 mph 28.8 mph N/A   Mostly Cloudy
2:35 PM 10.4 °F -10.7 °F 6.8 °F 85% 30.26 in 10.0 mi NNW 26.5 mph 33.4 mph N/A   Mostly Cloudy
2:55 PM 10.4 °F -8.6 °F 6.8 °F 85% 30.26 in 10.0 mi NNW 20.7 mph 29.9 mph N/A   Mostly Cloudy
3:15 PM 12.2 °F -7.1 °F 6.8 °F 79% 30.27 in 10.0 mi NNW 23.0 mph 31.1 mph N/A   Mostly Cloudy
3:35 PM 10.4 °F -9.9 °F 5.0 °F 79% 30.27 in 10.0 mi North 24.2 mph 31.1 mph N/A   Scattered Clouds
3:55 PM 12.2 °F -4.3 °F 5.0 °F 73% 30.27 in 10.0 mi NNW 16.1 mph 31.1 mph N/A   Clear
4:15 PM 12.2 °F -7.1 °F 3.2 °F 67% 30.29 in 10.0 mi NNW 23.0 mph 32.2 mph N/A   Clear
4:35 PM 12.2 °F -7.9 °F 1.4 °F 62% 30.29 in 10.0 mi NNW 25.3 mph 32.2 mph N/A   Clear
4:55 PM 12.2 °F -5.8 °F 1.4 °F 62% 30.30 in 10.0 mi NNW 19.6 mph 28.8 mph N/A   Clear
5:15 PM 10.4 °F -9.5 °F 1.4 °F 67% 30.30 in 10.0 mi NNW 23.0 mph 32.2 mph N/A   Clear
5:35 PM 10.4 °F -10.7 °F 1.4 °F 67% 30.31 in 10.0 mi NNW 26.5 mph 32.2 mph N/A   Clear
5:55 PM 10.4 °F -9.5 °F 1.4 °F 67% 30.32 in 10.0 mi NNW 23.0 mph 29.9 mph N/A   Clear
6:15 PM 10.4 °F -9.9 °F -0.4 °F 62% 30.33 in 10.0 mi NNW 24.2 mph 29.9 mph N/A   Clear
6:35 PM 10.4 °F -8.6 °F -0.4 °F 62% 30.33 in 10.0 mi NNW 20.7 mph 29.9 mph N/A   Clear
6:55 PM 10.4 °F -9.1 °F -0.4 °F 62% 30.34 in 10.0 mi NNW 21.9 mph 25.3 mph N/A   Clear
7:15 PM 10.4 °F -8.6 °F -0.4 °F 62% 30.35 in 10.0 mi NNW 20.7 mph 28.8 mph N/A   Clear
7:35 PM 8.6 °F -10.5 °F -0.4 °F 67% 30.35 in 10.0 mi NNW 19.6 mph 24.2 mph N/A   Clear
7:55 PM 8.6 °F -8.9 °F -0.4 °F 67% 30.37 in 10.0 mi NNW 16.1 mph 25.3 mph N/A   Clear
8:15 PM 8.6 °F -11.0 °F -0.4 °F 67% 30.37 in 10.0 mi NNW 20.7 mph 29.9 mph N/A   Clear
8:35 PM 8.6 °F -7.7 °F -0.4 °F 67% 30.38 in 10.0 mi NNW 13.8 mph 20.7 mph N/A   Clear
8:55 PM 8.6 °F -7.7 °F -0.4 °F 67% 30.38 in 10.0 mi NNW 13.8 mph 20.7 mph N/A   Partly Cloudy
9:15 PM 8.6 °F -7.7 °F -0.4 °F 67% 30.39 in 10.0 mi NNW 13.8 mph 24.2 mph N/A   Partly Cloudy
9:35 PM 8.6 °F -7.7 °F -0.4 °F 67% 30.39 in 10.0 mi NNW 13.8 mph 19.6 mph N/A   Clear
9:55 PM 8.6 °F -8.3 °F -0.4 °F 67% 30.40 in 10.0 mi NNW 15.0 mph - N/A   Partly Cloudy
10:15 PM 8.6 °F -7.7 °F -0.4 °F 67% 30.40 in 10.0 mi NNW 13.8 mph 18.4 mph N/A   Partly Cloudy
10:35 PM 8.6 °F -7.0 °F -0.4 °F 67% 30.41 in 10.0 mi NNW 12.7 mph - N/A   Clear
10:55 PM 8.6 °F -6.3 °F -0.4 °F 67% 30.41 in 10.0 mi NNW 11.5 mph - N/A   Partly Cloudy
11:15 PM 8.6 °F -6.3 °F -0.4 °F 67% 30.42 in 10.0 mi NNW 11.5 mph - N/A   Partly Cloudy
11:35 PM 8.6 °F -5.5 °F -0.4 °F 67% 30.42 in 10.0 mi NW 10.4 mph - N/A   Scattered Clouds
11:55 PM 8.6 °F -3.7 °F -0.4 °F 67% 30.42 in 10.0 mi NW 8.1 mph - N/A   Scattered Clouds